Year,Month,Day,Hour,Minute,Value (Times are PST for temperature in C)
2020,04,26,07,21,28.10
2020,04,26,07,22,28.10
2020,04,26,07,23,28.10
2020,04,26,07,24,28.10
2020,04,26,07,25,28.10
2020,04,26,07,26,28.10
2020,04,26,07,27,28.10
2020,04,26,07,28,28.10
2020,04,26,07,29,28.10
2020,04,26,07,30,28.10
2020,04,26,07,31,28.10
2020,04,26,07,32,28.10
2020,04,26,08,40,28.30
2020,04,26,08,41,28.30
2020,04,26,08,42,28.30
2020,04,26,08,43,28.30
2020,04,26,08,44,28.30
2020,04,26,08,45,28.30
2020,04,26,08,46,28.30
2020,04,26,08,47,28.30
2020,04,26,08,48,28.30
2020,04,26,08,49,28.30
2020,04,26,08,50,28.30
2020,04,26,08,51,28.30
2020,04,26,10,50,30.70
2020,04,26,10,51,30.70
2020,04,26,10,52,30.80
2020,04,26,10,53,30.70
2020,04,26,10,54,30.50
2020,04,26,10,55,30.50
2020,04,26,10,56,30.70
2020,04,26,10,57,30.90
2020,04,26,10,58,31.10
2020,04,26,10,59,31.20
2020,04,26,11,00,31.40
2020,04,26,11,01,31.60
2020,04,26,11,02,31.70
2020,04,26,11,03,31.80
2020,04,26,11,04,31.70
2020,04,26,11,05,31.70
2020,04,26,11,06,31.70
2020,04,26,11,07,31.70
2020,04,26,11,08,31.70
2020,04,26,11,09,31.70
2020,04,26,11,10,31.70
2020,04,26,11,11,31.70
2020,04,26,11,12,31.80
2020,04,26,11,13,31.80
2020,04,26,11,14,31.80
2020,04,26,11,15,31.80
2020,04,26,11,16,31.80
2020,04,26,11,17,31.80
2020,04,26,11,18,31.80
2020,04,26,11,19,31.80
2020,04,26,11,20,31.80
2020,04,26,11,21,31.80
2020,04,26,11,22,31.80
2020,04,26,11,23,31.40
2020,04,26,11,24,31.30
2020,04,26,11,25,31.30
2020,04,26,11,26,31.30
2020,04,26,11,27,31.30
2020,04,26,11,28,31.30
2020,04,26,11,29,31.30
2020,04,26,11,30,31.30
2020,04,26,11,31,31.20
2020,04,26,11,32,31.00
2020,04,26,11,33,31.00
2020,04,26,11,34,31.00
2020,04,26,11,35,31.10
2020,04,26,11,36,31.10
2020,04,26,11,37,31.00
2020,04,26,11,38,31.00
2020,04,26,11,39,31.00
2020,04,26,11,40,31.00
2020,04,26,11,41,31.00
2020,04,26,11,42,31.00
2020,04,26,11,43,31.00
2020,04,26,11,44,31.00
2020,04,26,11,45,31.00
2020,04,26,11,46,31.00
2020,04,26,11,47,31.10
2020,04,26,11,48,31.20
2020,04,26,11,49,31.20
2020,04,26,11,50,31.20
2020,04,26,11,51,31.20
2020,04,26,11,52,31.20
2020,04,26,11,53,31.20
2020,04,26,11,54,31.20
2020,04,26,11,55,31.40
2020,04,26,11,56,31.90
2020,04,26,11,57,32.00
2020,04,26,11,58,32.00
2020,04,26,11,59,32.10
2020,04,26,12,00,32.10
2020,04,26,12,01,32.10
2020,04,26,12,02,32.00
2020,04,26,12,03,32.00
2020,04,26,12,04,32.00
2020,04,26,12,05,32.00
2020,04,26,12,06,32.00
2020,04,26,12,07,32.00
2020,04,26,12,08,32.00
2020,04,26,12,09,31.90
2020,04,26,12,10,31.90
2020,04,26,12,11,31.90
2020,04,26,12,12,31.90
2020,04,26,12,13,31.90
2020,04,26,12,14,31.90
2020,04,26,12,15,32.00
2020,04,26,12,16,32.00
2020,04,26,12,17,32.10
2020,04,26,12,18,32.00
2020,04,26,12,19,32.00
2020,04,26,12,20,32.00
2020,04,26,12,21,32.00
2020,04,26,12,22,32.00
2020,04,26,12,23,32.00
2020,04,26,12,24,32.00
2020,04,26,12,25,32.00
2020,04,26,12,26,32.00
2020,04,26,12,27,32.00
2020,04,26,12,28,32.00
2020,04,26,12,45,32.20
2020,04,26,12,46,32.30
2020,04,26,12,47,32.30
2020,04,26,12,48,32.30
2020,04,26,12,49,32.30
2020,04,26,12,50,32.30
2020,04,26,12,51,32.30
2020,04,26,12,52,32.40
2020,04,26,12,53,32.40
2020,04,26,12,54,32.40
2020,04,26,12,55,32.40
2020,04,26,12,56,32.50
2020,04,26,12,57,32.50
2020,04,26,12,58,32.60
2020,04,26,12,59,32.60
2020,04,26,13,00,32.60
2020,04,26,13,01,32.60
2020,04,26,13,02,32.60
2020,04,26,13,03,32.60
2020,04,26,13,04,32.60
2020,04,26,13,05,32.60
2020,04,26,13,06,32.50
2020,04,26,13,07,32.50
2020,04,26,13,08,32.50
2020,04,26,13,09,32.50
2020,04,26,13,10,32.50
2020,04,26,13,11,32.50
2020,04,26,13,12,32.40
2020,04,26,13,13,32.30
2020,04,26,13,14,32.30
2020,04,26,13,15,32.30
2020,04,26,13,16,32.30
2020,04,26,13,17,32.30
2020,04,26,13,18,32.30
2020,04,26,13,19,32.30
2020,04,26,13,20,32.40
2020,04,26,13,21,32.40
2020,04,26,13,22,32.40
2020,04,26,13,23,32.40
2020,04,26,13,24,32.40
2020,04,26,13,25,32.40
2020,04,26,13,26,32.40
2020,04,26,13,27,32.30
2020,04,26,13,28,32.30
2020,04,26,13,29,32.40
2020,04,26,13,30,32.40
2020,04,26,13,31,32.40
2020,04,26,13,32,32.50
2020,04,26,13,33,32.40
2020,04,26,13,34,32.40
2020,04,26,13,35,32.40
2020,04,26,13,36,32.40
2020,04,26,13,37,32.30
2020,04,26,13,38,32.40
2020,04,26,13,39,32.40
2020,04,26,13,40,32.40
2020,04,26,13,41,32.40
2020,04,26,13,42,32.50
2020,04,26,13,43,32.50
2020,04,26,13,44,32.50
2020,04,26,13,45,32.50
2020,04,26,13,46,32.40
2020,04,26,13,47,32.40
2020,04,26,13,48,32.30
2020,04,26,13,49,32.30
2020,04,26,13,50,32.40
2020,04,26,13,51,32.40
2020,04,26,13,52,32.40
2020,04,26,13,53,32.50
2020,04,26,13,54,32.50
2020,04,26,13,55,32.60
2020,04,26,13,56,32.60
2020,04,26,13,57,32.60
2020,04,26,13,58,32.60
2020,04,26,13,59,32.60
2020,04,26,14,00,32.60
2020,04,26,14,01,32.60
2020,04,26,14,02,32.50
2020,04,26,14,03,32.50
2020,04,26,14,04,32.50
2020,04,26,14,05,32.50
2020,04,26,14,06,32.40
2020,04,26,14,07,32.40
2020,04,26,14,08,32.40
2020,04,26,14,09,32.50
2020,04,26,14,10,32.40
2020,04,26,14,11,32.40
2020,04,26,14,12,32.40
2020,04,26,14,13,32.40
2020,04,26,14,14,32.40
2020,04,26,14,15,32.40
2020,04,26,14,16,32.40
2020,04,26,14,17,32.40
2020,04,26,14,18,32.40
2020,04,26,14,19,32.40
2020,04,26,14,20,32.40
2020,04,26,15,10,32.90
2020,04,26,15,11,33.00
2020,04,26,15,12,32.90
2020,04,26,15,13,32.90
2020,04,26,15,14,32.90
2020,04,26,15,15,32.90
2020,04,26,15,16,32.90
2020,04,26,15,17,32.90
2020,04,26,15,18,32.90
2020,04,26,15,19,32.90
2020,04,26,15,20,32.90
2020,04,26,15,21,32.90
